This demonstration page uses our WeatherBlox Daily Observations layout. Learn more.

Left ArrowRight Arrow

41.86663, -103.66717

Hourly Observations for January 9, 2017

Temp ( °F °C ) Dew Point ( °F °C ) Humidity (%) Winds ( mph kmh ) Pressure ( in mb ) Visibility ( mi km ) Precip ( " mm )
12:15 am 00:15 Cloudy 33 0.6 29 -1.7 85 85 ESE 16 26 30.03 1017 10 16 0.00 0.00
12:53 am 00:53 Mostly Cloudy 33 0.6 29 -1.7 85 85 SE 15 24 29.93 1013 10 16 0.00 0.00
1:53 am 01:53 Clear 32 0 28 -2.2 85 85 ESE 14 22 29.89 1012 7 11 0.00 0.00
2:53 am 02:53 Clear with Mist and Fog 30 -1.1 27 -2.8 88 88 ESE 13 20 29.86 1011 6 10 0.00 0.00
3:53 am 03:53 Clear 30 -1.1 27 -2.8 88 88 ESE 13 20 29.82 1010 8 13 0.00 0.00
4:53 am 04:53 Clear 32 0 27 -2.8 82 82 E 12 19 29.80 1009 10 16 0.00 0.00
5:53 am 05:53 Clear 32 0 27 -2.8 82 82 E 10 17 29.78 1009 10 16 0.00 0.00
6:53 am 06:53 Clear 31 -0.6 27 -2.8 85 85 ESE 14 22 29.76 1008 10 16 0.00 0.00
7:53 am 07:53 Sunny 31 -0.6 26 -3.3 82 82 E 8 13 29.76 1008 10 16 0.00 0.00
8:53 am 08:53 Sunny 33 0.6 28 -2.2 82 82 Calm 29.75 1007 10 16 0.00 0.00
9:53 am 09:53 Sunny 33 0.6 28 -2.2 82 82 S 7 11 29.75 1008 10 16 0.00 0.00
10:53 am 10:53 Mostly Cloudy 34 1.1 29 -1.7 82 82 E 3 6 29.73 1007 10 16 0.00 0.00
11:53 am 11:53 Sunny 35 1.7 30 -1.1 82 82 E 5 7 29.68 1005 10 16 0.00 0.00
12:53 pm 12:53 Sunny 38 3.3 32 0 79 79 Calm 29.63 1003 10 16 0.00 0.00
1:53 pm 13:53 Sunny 41 5 33 0.6 73 73 Calm 29.60 1003 10 16 0.00 0.00
2:53 pm 14:53 Sunny 45 7.2 35 1.7 68 68 N 3 6 29.58 1002 10 16 0.00 0.00
3:53 pm 15:53 Sunny 42 5.6 33 0.6 71 71 VRB 5 7 29.58 1002 10 16 0.00 0.00
4:53 pm 16:53 Clear 42 5.6 33 0.6 71 71 W 3 6 29.56 1001 10 16 0.00 0.00
5:53 pm 17:53 Clear 40 4.4 32 0 73 73 S 9 15 29.55 1001 10 16 0.00 0.00
6:53 pm 18:53 Clear 37 2.8 32 0 82 82 E 8 13 29.55 1001 10 16 0.00 0.00
7:53 pm 19:53 Clear 39 3.9 32 0 76 76 SSE 5 7 29.53 1000 10 16 0.00 0.00
8:53 pm 20:53 Clear 37 2.8 31 -0.6 79 79 WSW 3 6 29.51 999 10 16 0.00 0.00
9:53 pm 21:53 Clear 36 2.2 30 -1.1 79 79 S 8 13 29.52 1000 10 16 0.00 0.00
10:53 pm 22:53 Partly Cloudy 38 3.3 31 -0.6 76 76 WNW 9 15 29.51 999 10 16 0.00 0.00
11:53 pm 23:53 Mostly Clear 42 5.6 31 -0.6 65 65 W 13 20 29.50 999 10 16 0.00 0.00

Powered by AerisWeather